CW5039 Weather Reports


Display with metric or nautical units.
time (UTC)temp
F
wind
direction
speed
MPH
gust
MPH
rain 1hr
in
rain 24hr
in
rain mn
in
humidity
%
barometer
mb
20260504160406 51 223 1.0 2.0 0.00 0.00 0.00 93 1033.0
20260504140406 52 270 1.0 3.0 0.00 0.00 0.00 91 1034.2
20260504100406 50 43 0.0 2.0 0.00 0.00 0.00 90 1034.7
20260504081405 56 96 3.0 3.0 0.00 0.00 0.00 81 1034.4
20260504080404 57 40 1.0 2.0 0.00 0.00 0.00 81 1034.4
20260504070405 59 74 2.0 3.0 0.00 0.00 0.00 77 1033.6
20260504050405 62 180 0.0 1.0 0.00 0.00 0.00 74 1032.9
20260504045405 62 180 1.0 2.0 0.00 0.00 0.00 73 1032.9
20260504044906 62 129 1.0 2.0 0.00 0.00 0.00 73 1032.9
20260504044405 63 128 0.0 1.0 0.00 0.00 0.00 72 1032.9
20260504043905 63 127 1.0 2.0 0.00 0.00 0.00 69 1033.0
20260504043405 64 123 0.0 1.0 0.00 0.00 0.00 69 1033.0
20260504042905 64 123 0.0 0.0 0.00 0.00 0.00 65 1033.0
20260504042406 64 123 0.0 0.0 0.00 0.00 0.00 66 1033.0
20260504041405 64 123 0.0 0.0 0.00 0.00 0.00 64 1033.0
20260504033405 63 122 0.0 1.0 0.00 0.00 0.00 66 1032.9
20260504032905 63 122 0.0 2.0 0.00 0.00 0.00 67 1032.9
20260504031906 62 123 1.0 3.0 0.00 0.00 0.00 71 1033.0
20260504025906 63 133 5.0 7.0 0.00 0.00 0.00 67 1032.9
20260504024905 65 143 3.0 5.0 0.00 0.00 0.00 64 1032.9
20260504023406 65 222 2.0 5.0 0.00 0.00 0.00 63 1032.9
20260504022405 65 203 2.0 3.0 0.00 0.00 0.00 65 1033.0
20260504021905 64 117 1.0 3.0 0.00 0.00 0.00 64 1033.1
20260504020406 65 129 2.0 3.0 0.00 0.00 0.00 63 1033.1
20260504014405 65 312 3.0 5.0 0.00 0.00 0.00 62 1033.4
20260504013405 64 264 2.0 3.0 0.00 0.00 0.00 64 1033.5
20260504012904 64 261 1.0 5.0 0.00 0.00 0.00 65 1033.5
20260504012405 64 261 2.0 3.0 0.00 0.00 0.00 64 1033.5
20260504011905 64 294 2.0 3.0 0.00 0.00 0.00 64 1033.6
20260504011405 64 244 1.0 3.0 0.00 0.00 0.00 63 1033.7
20260504010405 63 197 0.0 2.0 0.00 0.00 0.00 65 1033.9
20260504005905 63 152 0.0 1.0 0.00 0.00 0.00 65 1033.9
20260504004905 63 151 0.0 2.0 0.00 0.00 0.00 65 1034.0
20260504004405 64 101 1.0 2.0 0.00 0.00 0.00 66 1034.0
20260504003905 64 84 1.0 3.0 0.00 0.00 0.00 64 1034.0
20260504000405 64 281 1.0 3.0 0.00 0.00 0.00 70 1034.4
20260503235905 63 173 3.0 3.0 0.00 0.00 0.00 73 1034.5
20260503234905 62 196 1.0 6.0 0.00 0.00 0.00 72 1034.5
20260503233905 62 147 3.0 7.0 0.00 0.00 0.00 77 1034.7
20260503233405 61 139 5.0 7.0 0.00 0.00 0.00 80 1034.7
20260503231905 60 155 5.0 9.0 0.00 0.00 0.00 84 1034.7
20260503230905 59 176 5.0 7.0 0.00 0.00 0.00 86 1034.8
20260503230405 59 182 3.0 5.0 0.00 0.00 0.00 87 1034.8
20260503225905 58 157 3.0 6.0 0.00 0.00 0.00 89 1034.8
20260503224405 57 171 2.0 3.0 0.00 0.00 0.00 91 1034.7
20260503223905 57 159 2.0 3.0 0.00 0.00 0.00 91 1034.8
20260503223405 57 165 1.0 3.0 0.00 0.00 0.00 92 1034.9
20260503220905 54 149 0.0 1.0 0.00 0.00 0.00 94 1035.1
20260503215405 53 153 1.0 2.0 0.00 0.00 0.00 95 1035.1
20260503214405 52 153 0.0 1.0 0.00 0.00 0.00 95 1035.1
20260503213905 52 153 0.0 1.0 0.00 0.00 0.00 95 1035.1
20260503212905 52 155 2.0 3.0 0.00 0.00 0.00 95 1035.2
20260503212405 52 183 1.0 2.0 0.00 0.00 0.00 95 1035.2
20260503211405 51 195 0.0 0.0 0.00 0.00 0.00 95 1035.3
20260503210405 51 197 0.0 2.0 0.00 0.00 0.00 95 1035.3
20260503205906 51 197 1.0 2.0 0.00 0.00 0.00 95 1035.4
20260503203905 49 198 0.0 1.0 0.00 0.00 0.00 95 1035.2
20260503203405 49 198 0.0 2.0 0.00 0.00 0.00 95 1035.1
20260503202905 49 199 0.0 1.0 0.00 0.00 0.00 95 1035.0
20260503200405 47 200 1.0 3.0 0.00 0.00 0.00 95 1034.9
20260503195904 47 200 4.0 5.0 0.00 0.00 0.00 95 1034.9
20260503195405 47 217 1.0 3.0 0.00 0.00 0.00 95 1034.9
20260503192905 45 240 0.0 1.0 0.00 0.00 0.00 95 1034.7
20260503185406 43 238 0.0 0.0 0.00 0.00 0.00 95 1034.4
20260503183406 44 238 0.0 0.0 0.00 0.00 0.00 95 1034.3
20260503182906 44 238 0.0 0.0 0.00 0.00 0.00 95 1034.2
20260503182406 45 238 0.0 1.0 0.00 0.00 0.00 95 1034.1
20260503180906 45 228 1.0 1.0 0.00 0.00 0.00 95 1033.9
20260503180406 46 227 0.0 1.0 0.00 0.00 0.00 95 1033.9
20260503175905 46 226 0.0 1.0 0.00 0.01 0.00 95 1033.9
20260503175405 46 226 0.0 1.0 0.00 0.01 0.00 95 1033.9
20260503174905 46 222 0.0 1.0 0.00 0.01 0.00 95 1033.8
20260503173906 46 219 0.0 2.0 0.00 0.01 0.00 95 1033.7
20260503173406 45 219 0.0 1.0 0.00 0.01 0.00 95 1033.8
20260503172405 45 111 0.0 0.0 0.00 0.01 0.00 95 1033.8
20260503171407 45 103 0.0 0.0 0.00 0.01 0.00 95 1033.9
20260503170906 45 103 0.0 1.0 0.00 0.01 0.00 95 1034.0